,,,PA_Meas_PMT16A,,PR_Meas_QMR101_102,,RH_Meas_QMH101,,SR_Meas_QMS101,,TA_Meas_QMH101,,GenWind,,GenWind,
date,time,status,PA,status,PR,status,RH,status,SR,status,TA,status,DirAvg,status,SpdAvg,
2008-05-15, 00:00:04,VALID,1006.4,VALID,0,VALID,93.6674,VALID,0,VALID,24.3265,VALID,347,VALID,0.511719,
2008-05-15, 00:01:04,VALID,1006.38,VALID,0,VALID,93.8123,VALID,0,VALID,24.3283,VALID,347,VALID,0.185937,
2008-05-15, 00:02:04,VALID,1006.36,VALID,0,VALID,93.8734,VALID,0,VALID,24.3265,VALID,347,VALID,0.272266,
2008-05-15, 00:03:04,VALID,1006.34,VALID,0,VALID,93.9039,VALID,0,VALID,24.3265,VALID,349,VALID,0.0308594,
2008-05-15, 00:04:04,VALID,1006.34,VALID,0,VALID,93.881,VALID,0,VALID,24.3478,VALID,348,VALID,0.0820313,
2008-05-15, 00:05:04,VALID,1006.34,VALID,0,VALID,94.1785,VALID,0,VALID,24.3459,VALID,296,VALID,0.532422,
2008-05-15, 00:06:04,VALID,1006.3,VALID,0,VALID,94.2243,VALID,0,VALID,24.4257,VALID,295,VALID,0.633984,
2008-05-15, 00:07:04,VALID,1006.32,VALID,0,VALID,93.9191,VALID,0,VALID,24.4841,VALID,293,VALID,0.335547,
2008-05-15, 00:08:04,VALID,1006.31,VALID,0,VALID,93.7895,VALID,0,VALID,24.4841,VALID,293,VALID,0.00117188,
2008-05-15, 00:09:04,VALID,1006.31,VALID,0,VALID,93.7132,VALID,0,VALID,24.4628,VALID,293,VALID,0,
2008-05-15, 00:10:04,VALID,1006.32,VALID,0,VALID,93.6979,VALID,0,VALID,24.4628,VALID,293,VALID,0.0800781,
2008-05-15, 00:11:04,VALID,1006.27,VALID,0,VALID,93.7055,VALID,0.100563,VALID,24.4822,VALID,293,VALID,0.00117188,
2008-05-15, 00:12:04,VALID,1006.27,VALID,0,VALID,93.8581,VALID,0,VALID,24.4841,VALID,293,VALID,0.445313,
2008-05-15, 00:13:04,VALID,1006.26,VALID,0,VALID,93.7284,VALID,0,VALID,24.5035,VALID,293,VALID,0.287109,
2008-05-15, 00:14:04,VALID,1006.26,VALID,0,VALID,93.4309,VALID,0,VALID,24.5035,VALID,293,VALID,0.316406,
2008-05-15, 00:15:04,VALID,1006.28,VALID,0,VALID,93.0342,VALID,0,VALID,24.4451,VALID,319,VALID,0.498437,
2008-05-15, 00:16:04,VALID,1006.24,VALID,0,VALID,92.9121,VALID,0,VALID,24.3673,VALID,358,VALID,0.605859,
2008-05-15, 00:17:04,VALID,1006.26,VALID,0,VALID,92.8816,VALID,0,VALID,24.3283,VALID,358,VALID,0.467187,
2008-05-15, 00:18:04,VALID,1006.25,VALID,0,VALID,92.9808,VALID,0,VALID,24.2912,VALID,358,VALID,0.474609,
2008-05-15, 00:19:04,VALID,1006.23,VALID,0,VALID,93.1639,VALID,0,VALID,24.2115,VALID,358,VALID,0.426953,
2008-05-15, 00:20:04,VALID,1006.23,VALID,0,VALID,93.2707,VALID,0,VALID,24.1726,VALID,358,VALID,0.550391,
2008-05-15, 00:21:04,VALID,1006.23,VALID,0,VALID,93.5453,VALID,0,VALID,24.1336,VALID,358,VALID,0.373437,
2008-05-15, 00:22:04,VALID,1006.2,VALID,0,VALID,94.1251,VALID,0,VALID,24.1726,VALID,358,VALID,0.302734,
2008-05-15, 00:23:04,VALID,1006.2,VALID,0,VALID,94.0488,VALID,0,VALID,24.1726,VALID,357,VALID,0.411328,
2008-05-15, 00:24:04,VALID,1006.18,VALID,0,VALID,94.0412,VALID,0,VALID,24.1744,VALID,357,VALID,0.344922,
2008-05-15, 00:25:04,VALID,1006.2,VALID,0,VALID,94.0794,VALID,0,VALID,24.1549,VALID,357,VALID,0.376172,
2008-05-15, 00:26:04,VALID,1006.14,VALID,0,VALID,94.0488,VALID,0,VALID,24.1142,VALID,357,VALID,0.330469,
2008-05-15, 00:27:04,VALID,1006.13,VALID,0,VALID,94.1175,VALID,0,VALID,24.0752,VALID,357,VALID,0.177734,
2008-05-15, 00:28:04,VALID,1006.14,VALID,0,VALID,94.1404,VALID,0,VALID,24.0557,VALID,357,VALID,0.337891,
2008-05-15, 00:29:04,VALID,1006.1,VALID,0,VALID,94.1556,VALID,0,VALID,24.0168,VALID,357,VALID,0.297656,
2008-05-15, 00:30:04,VALID,1006.08,VALID,0,VALID,94.3082,VALID,0,VALID,24.0168,VALID,357,VALID,0.186328,
2008-05-15, 00:31:04,VALID,1006.08,VALID,0,VALID,94.3082,VALID,0,VALID,23.9973,VALID,357,VALID,0.299609,
2008-05-15, 00:32:04,VALID,1006.04,VALID,0,VALID,94.3311,VALID,0,VALID,23.9779,VALID,357,VALID,0.275391,
2008-05-15, 00:33:04,VALID,1006.07,VALID,0,VALID,94.4608,VALID,0,VALID,23.9779,VALID,357,VALID,0.0257812,
2008-05-15, 00:34:04,VALID,1006.04,VALID,0,VALID,94.4455,VALID,0,VALID,23.9602,VALID,357,VALID,0.101953,
2008-05-15, 00:35:04,VALID,1006.03,VALID,0,VALID,94.4303,VALID,0,VALID,23.9602,VALID,357,VALID,0,
2008-05-15, 00:36:04,VALID,1006.01,VALID,0,VALID,94.4761,VALID,0,VALID,23.9195,VALID,357,VALID,0,
2008-05-15, 00:37:04,VALID,1006.02,VALID,0,VALID,94.4989,VALID,0,VALID,23.9,VALID,357,VALID,0,
2008-05-15, 00:38:04,VALID,1006.01,VALID,0,VALID,94.56,VALID,0,VALID,23.8805,VALID,357,VALID,0,
2008-05-15, 00:39:04,VALID,1006.03,VALID,0,VALID,94.6286,VALID,0,VALID,23.8805,VALID,357,VALID,0,
2008-05-15, 00:40:04,VALID,1006.01,VALID,0,VALID,94.7202,VALID,0,VALID,23.8805,VALID,357,VALID,0,
2008-05-15, 00:41:04,VALID,1005.97,VALID,0,VALID,94.827,VALID,0,VALID,23.8805,VALID,357,VALID,0.0046875,
2008-05-15, 00:42:04,VALID,1005.97,VALID,0,VALID,94.8422,VALID,0,VALID,23.8805,VALID,357,VALID,0,
2008-05-15, 00:43:04,VALID,1005.96,VALID,0,VALID,94.8422,VALID,0,VALID,23.8805,VALID,357,VALID,0,
2008-05-15, 00:44:04,VALID,1005.95,VALID,0,VALID,94.8651,VALID,0,VALID,23.8611,VALID,357,VALID,0,
2008-05-15, 00:45:04,VALID,1005.91,VALID,0,VALID,94.9033,VALID,0,VALID,23.8593,VALID,357,VALID,0.0421875,
2008-05-15, 00:46:04,VALID,1005.92,VALID,0,VALID,94.9414,VALID,0,VALID,23.8611,VALID,357,VALID,0.255469,
2008-05-15, 00:47:04,VALID,1005.88,VALID,0,VALID,94.9262,VALID,0,VALID,23.8398,VALID,357,VALID,0.13125,
2008-05-15, 00:48:04,VALID,1005.87,VALID,0,VALID,94.8804,VALID,0,VALID,23.8221,VALID,358,VALID,0.230469,
2008-05-15, 00:49:04,VALID,1005.84,VALID,0,VALID,94.9338,VALID,0,VALID,23.8221,VALID,358,VALID,0,
2008-05-15, 00:50:04,VALID,1005.83,VALID,0,VALID,94.9185,VALID,0,VALID,23.8027,VALID,358,VALID,0.11875,
2008-05-15, 00:51:04,VALID,1005.8,VALID,0,VALID,94.949,VALID,0,VALID,23.7832,VALID,358,VALID,0,
2008-05-15, 00:52:04,VALID,1005.83,VALID,0,VALID,94.949,VALID,0,VALID,23.7832,VALID,358,VALID,0.185156,
2008-05-15, 00:53:04,VALID,1005.77,VALID,0,VALID,94.9872,VALID,0,VALID,23.7637,VALID,358,VALID,0.121484,
2008-05-15, 00:54:04,VALID,1005.76,VALID,0,VALID,95.0024,VALID,0,VALID,23.7832,VALID,358,VALID,0.16875,
2008-05-15, 00:55:04,VALID,1005.75,VALID,0,VALID,94.9567,VALID,0,VALID,23.7832,VALID,358,VALID,0.134375,
2008-05-15, 00:56:04,VALID,1005.77,VALID,0,VALID,94.888,VALID,0,VALID,23.7832,VALID,358,VALID,0.164453,
2008-05-15, 00:57:04,VALID,1005.74,VALID,0,VALID,94.8804,VALID,0,VALID,23.7443,VALID,358,VALID,0.336719,
2008-05-15, 00:58:04,VALID,1005.72,VALID,0,VALID,94.9033,VALID,0,VALID,23.7248,VALID,358,VALID,0.244141,
2008-05-15, 00:59:04,VALID,1005.7,VALID,0,VALID,94.9033,VALID,0,VALID,23.7248,VALID,358,VALID,0.288672,
2008-05-15, 01:00:04,VALID,1005.7,VALID,0,VALID,94.8804,VALID,0,VALID,23.7053,VALID,358,VALID,0.196875,
2008-05-15, 01:01:04,VALID,1005.71,VALID,0,VALID,94.8575,VALID,0,VALID,23.6859,VALID,358,VALID,0.249609,
2008-05-15, 01:02:04,VALID,1005.68,VALID,0,VALID,94.8117,VALID,0,VALID,23.6469,VALID,358,VALID,0.353906,
2008-05-15, 01:03:04,VALID,1005.68,VALID,0,VALID,95.0177,VALID,0,VALID,23.6257,VALID,358,VALID,0.203516,
2008-05-15, 01:04:04,VALID,1005.64,VALID,0,VALID,95.0864,VALID,0,VALID,23.6664,VALID,358,VALID,0.255469,
2008-05-15, 01:05:04,VALID,1005.66,VALID,0,VALID,95.3152,VALID,0,VALID,23.6859,VALID,357,VALID,0.352344,
2008-05-15, 01:06:04,VALID,1005.65,VALID,0,VALID,95.3457,VALID,0,VALID,23.7035,VALID,357,VALID,0.21875,
2008-05-15, 01:07:04,VALID,1005.63,VALID,0,VALID,95.2389,VALID,0,VALID,23.7248,VALID,357,VALID,0,
2008-05-15, 01:08:04,VALID,1005.63,VALID,0,VALID,95.2084,VALID,0,VALID,23.7248,VALID,357,VALID,0.0265625,
2008-05-15, 01:09:04,VALID,1005.6,VALID,0,VALID,95.1703,VALID,0,VALID,23.6841,VALID,357,VALID,0,
2008-05-15, 01:10:04,VALID,1005.61,VALID,0,VALID,95.1016,VALID,0,VALID,23.6859,VALID,357,VALID,0.255469,
2008-05-15, 01:11:04,VALID,1005.61,VALID,0,VALID,95.0177,VALID,0,VALID,23.6469,VALID,358,VALID,0.378906,
2008-05-15, 01:12:04,VALID,1005.64,VALID,0,VALID,94.9643,VALID,0,VALID,23.5868,VALID,358,VALID,0.319922,
2008-05-15, 01:13:04,VALID,1005.64,VALID,0,VALID,94.9796,VALID,0,VALID,23.608,VALID,358,VALID,0.132422,
2008-05-15, 01:14:04,VALID,1005.65,VALID,0,VALID,95.0101,VALID,0,VALID,23.5885,VALID,358,VALID,0,
2008-05-15, 01:15:04,VALID,1005.69,VALID,0,VALID,95.1093,VALID,0,VALID,23.5691,VALID,358,VALID,0.157422,
2008-05-15, 01:16:04,VALID,1005.64,VALID,0,VALID,95.0482,VALID,0,VALID,23.5496,VALID,358,VALID,0,
2008-05-15, 01:17:04,VALID,1005.65,VALID,0,VALID,95.0406,VALID,0,VALID,23.5496,VALID,358,VALID,0.289063,
2008-05-15, 01:18:04,VALID,1005.62,VALID,0,VALID,95.1245,VALID,0,VALID,23.5496,VALID,358,VALID,0.2125,
2008-05-15, 01:19:04,VALID,1005.62,VALID,0,VALID,95.2161,VALID,0,VALID,23.5496,VALID,358,VALID,0.171094,
2008-05-15, 01:20:04,VALID,1005.6,VALID,0,VALID,95.2618,VALID,0,VALID,23.5284,VALID,358,VALID,0.0140625,
2008-05-15, 01:21:04,VALID,1005.6,VALID,0,VALID,95.2618,VALID,0,VALID,23.5885,VALID,358,VALID,0.323438,
2008-05-15, 01:22:04,VALID,1005.56,VALID,0,VALID,95.1321,VALID,0,VALID,23.5496,VALID,358,VALID,0.192578,
2008-05-15, 01:23:04,VALID,1005.55,VALID,0,VALID,95.2313,VALID,0,VALID,23.5284,VALID,358,VALID,0,
2008-05-15, 01:24:04,VALID,1005.53,VALID,0,VALID,95.3534,VALID,0,VALID,23.5284,VALID,358,VALID,0.00507812,
2008-05-15, 01:25:04,VALID,1005.54,VALID,0,VALID,95.2923,VALID,0,VALID,23.5885,VALID,358,VALID,0,
2008-05-15, 01:26:04,VALID,1005.5,VALID,0,VALID,95.2618,VALID,0,VALID,23.5673,VALID,358,VALID,0,
2008-05-15, 01:27:04,VALID,1005.51,VALID,0,VALID,95.2084,VALID,0,VALID,23.5691,VALID,358,VALID,0.552734,
2008-05-15, 01:28:04,VALID,1005.49,VALID,0,VALID,95.1474,VALID,0,VALID,23.5691,VALID,358,VALID,0.309375,
2008-05-15, 01:29:04,VALID,1005.5,VALID,0,VALID,95.1855,VALID,0,VALID,23.5284,VALID,358,VALID,0.370313,
2008-05-15, 01:30:04,VALID,1005.48,VALID,0,VALID,95.1245,VALID,0,VALID,23.5496,VALID,358,VALID,0.402344,
2008-05-15, 01:31:04,VALID,1005.45,VALID,0,VALID,95.1245,VALID,0,VALID,23.5302,VALID,358,VALID,0.660547,
2008-05-15, 01:32:04,VALID,1005.46,VALID,0,VALID,95.1016,VALID,0,VALID,23.5107,VALID,358,VALID,0.522266,
2008-05-15, 01:33:04,VALID,1005.41,VALID,0,VALID,95.2847,VALID,0.100563,VALID,23.5089,VALID,358,VALID,0.338672,
2008-05-15, 01:34:04,VALID,1005.41,VALID,0,VALID,95.2847,VALID,0,VALID,23.5107,VALID,357,VALID,0.454688,
2008-05-15, 01:35:04,VALID,1005.4,VALID,0,VALID,95.3152,VALID,0.100563,VALID,23.5089,VALID,357,VALID,0.303125,
2008-05-15, 01:36:04,VALID,1005.39,VALID,0,VALID,95.2771,VALID,0,VALID,23.5107,VALID,357,VALID,0.39375,
2008-05-15, 01:37:04,VALID,1005.37,VALID,0,VALID,95.3457,VALID,0,VALID,23.5107,VALID,357,VALID,0.367188,
2008-05-15, 01:38:04,VALID,1005.36,VALID,0,VALID,95.3534,VALID,0,VALID,23.5302,VALID,357,VALID,0.430469,
2008-05-15, 01:39:04,VALID,1005.38,VALID,0,VALID,95.3305,VALID,0,VALID,23.5089,VALID,357,VALID,0.373047,
2008-05-15, 01:40:04,VALID,1005.35,VALID,0,VALID,95.3229,VALID,0,VALID,23.5107,VALID,357,VALID,0.446875,
2008-05-15, 01:41:04,VALID,1005.33,VALID,0,VALID,95.3229,VALID,0,VALID,23.4894,VALID,357,VALID,0.407813,
2008-05-15, 01:42:04,VALID,1005.32,VALID,0,VALID,95.3305,VALID,0.100563,VALID,23.4894,VALID,357,VALID,0.450781,
2008-05-15, 01:43:04,VALID,1005.3,VALID,0,VALID,95.3457,VALID,0,VALID,23.5107,VALID,357,VALID,0.448047,
2008-05-15, 01:44:04,VALID,1005.27,VALID,0,VALID,95.3991,VALID,0.100563,VALID,23.4894,VALID,357,VALID,0.508984,
2008-05-15, 01:45:04,VALID,1005.25,VALID,0,VALID,95.4678,VALID,0,VALID,23.5302,VALID,357,VALID,0.451562,
2008-05-15, 01:46:04,VALID,1005.24,VALID,0,VALID,95.5441,VALID,0.100563,VALID,23.5089,VALID,358,VALID,0.602734,
2008-05-15, 01:47:04,VALID,1005.23,VALID,0,VALID,95.5517,VALID,0,VALID,23.5107,VALID,358,VALID,0.488281,
2008-05-15, 01:48:04,VALID,1005.22,VALID,0,VALID,95.5822,VALID,0,VALID,23.5089,VALID,358,VALID,0.462109,
2008-05-15, 01:49:04,VALID,1005.21,VALID,0,VALID,95.567,VALID,0,VALID,23.5496,VALID,358,VALID,0.380078,
2008-05-15, 01:50:04,VALID,1005.17,VALID,0,VALID,95.5975,VALID,0,VALID,23.5496,VALID,358,VALID,0.335547,
2008-05-15, 01:51:04,VALID,1005.18,VALID,0,VALID,95.5899,VALID,0,VALID,23.5691,VALID,358,VALID,0.342969,
2008-05-15, 01:52:04,VALID,1005.19,VALID,0,VALID,95.6128,VALID,0.100563,VALID,23.5478,VALID,358,VALID,0.137109,
2008-05-15, 01:53:04,VALID,1005.19,VALID,0,VALID,95.5822,VALID,0.100563,VALID,23.5673,VALID,358,VALID,0.142188,
2008-05-15, 01:54:04,VALID,1005.21,VALID,0,VALID,95.5822,VALID,0.100563,VALID,23.5478,VALID,358,VALID,0,
2008-05-15, 01:55:04,VALID,1005.21,VALID,0,VALID,95.6204,VALID,0,VALID,23.5673,VALID,358,VALID,0.189063,
2008-05-15, 01:56:04,VALID,1005.22,VALID,0,VALID,95.5975,VALID,0,VALID,23.5868,VALID,358,VALID,0,
2008-05-15, 01:57:04,VALID,1005.22,VALID,0,VALID,95.6662,VALID,0.100563,VALID,23.6062,VALID,358,VALID,0.003125,
2008-05-15, 01:58:04,VALID,1005.26,VALID,0,VALID,95.6356,VALID,0.100563,VALID,23.6257,VALID,358,VALID,0,
2008-05-15, 01:59:04,VALID,1005.27,VALID,0,VALID,95.6356,VALID,0.100563,VALID,23.6257,VALID,358,VALID,0.310937,
2008-05-15, 02:00:04,VALID,1005.25,VALID,0,VALID,95.5822,VALID,0,VALID,23.6469,VALID,358,VALID,0.281641,
2008-05-15, 02:01:04,VALID,1005.26,VALID,0,VALID,95.6585,VALID,0.100563,VALID,23.7053,VALID,358,VALID,0.266016,
2008-05-15, 02:02:04,VALID,1005.27,VALID,0,VALID,95.6051,VALID,0.100563,VALID,23.7053,VALID,356,VALID,0.433594,
2008-05-15, 02:03:04,VALID,1005.24,VALID,0,VALID,95.5288,VALID,0,VALID,23.7248,VALID,356,VALID,0,
2008-05-15, 02:04:04,VALID,1005.23,VALID,0,VALID,95.5746,VALID,0,VALID,23.723,VALID,356,VALID,0,
2008-05-15, 02:05:04,VALID,1005.25,VALID,0,VALID,95.4907,VALID,0.100563,VALID,23.7637,VALID,356,VALID,0,
2008-05-15, 02:06:04,VALID,1005.24,VALID,0,VALID,95.4831,VALID,0,VALID,23.8027,VALID,356,VALID,0,
2008-05-15, 02:07:04,VALID,1005.28,VALID,0,VALID,95.4373,VALID,0,VALID,23.8203,VALID,342,VALID,0.432813,
2008-05-15, 02:08:04,VALID,1005.24,VALID,0,VALID,95.3915,VALID,0.100563,VALID,23.8398,VALID,342,VALID,0.358594,
2008-05-15, 02:09:04,VALID,1005.21,VALID,0,VALID,95.3229,VALID,0,VALID,23.8982,VALID,351,VALID,0.521875,
2008-05-15, 02:10:04,VALID,1005.21,VALID,0,VALID,95.1321,VALID,0,VALID,23.9195,VALID,351,VALID,0.350781,
2008-05-15, 02:11:04,VALID,1005.22,VALID,0,VALID,95.1016,VALID,0,VALID,23.9195,VALID,351,VALID,0.500781,
2008-05-15, 02:12:04,VALID,1005.17,VALID,0,VALID,95.0711,VALID,0,VALID,23.9389,VALID,351,VALID,0.557031,
2008-05-15, 02:13:04,VALID,1005.18,VALID,0,VALID,95.0101,VALID,0,VALID,23.9389,VALID,358,VALID,0.454688,
2008-05-15, 02:14:04,VALID,1005.16,VALID,0,VALID,94.9262,VALID,0,VALID,23.9177,VALID,358,VALID,0.451953,
2008-05-15, 02:15:04,VALID,1005.15,VALID,0,VALID,94.888,VALID,0,VALID,23.9195,VALID,358,VALID,0.314453,
2008-05-15, 02:16:04,VALID,1005.15,VALID,0,VALID,94.8804,VALID,0,VALID,23.8787,VALID,358,VALID,0.265625,
2008-05-15, 02:17:04,VALID,1005.15,VALID,0,VALID,94.8575,VALID,0,VALID,23.9195,VALID,358,VALID,0.220313,
2008-05-15, 02:18:04,VALID,1005.16,VALID,0,VALID,95.0101,VALID,0,VALID,23.9,VALID,358,VALID,0.282031,
2008-05-15, 02:19:04,VALID,1005.16,VALID,0,VALID,95.0787,VALID,0,VALID,23.9177,VALID,355,VALID,0.310937,
2008-05-15, 02:20:04,VALID,1005.12,VALID,0,VALID,95.0711,VALID,0,VALID,23.9371,VALID,354,VALID,0.328125,
2008-05-15, 02:21:04,VALID,1005.16,VALID,0,VALID,95.033,VALID,0.100563,VALID,23.9353,VALID,353,VALID,0.301953,
2008-05-15, 02:22:04,VALID,1005.13,VALID,0,VALID,94.9796,VALID,0.100563,VALID,23.9955,VALID,353,VALID,0.344922,
2008-05-15, 02:23:04,VALID,1005.1,VALID,0,VALID,94.9338,VALID,0,VALID,24.015,VALID,353,VALID,0.355469,
2008-05-15, 02:24:04,VALID,1005.1,VALID,0,VALID,94.888,VALID,0,VALID,24.0752,VALID,353,VALID,0.261328,
2008-05-15, 02:25:04,VALID,1005.12,VALID,0,VALID,94.8194,VALID,0,VALID,24.1142,VALID,353,VALID,0.509375,
2008-05-15, 02:26:04,VALID,1005.09,VALID,0,VALID,94.7125,VALID,0,VALID,24.1531,VALID,353,VALID,0.252734,
2008-05-15, 02:27:04,VALID,1005.09,VALID,0,VALID,94.5142,VALID,0,VALID,24.1902,VALID,349,VALID,0.461719,
2008-05-15, 02:28:04,VALID,1005.06,VALID,0,VALID,94.3006,VALID,0,VALID,24.2504,VALID,350,VALID,0.512109,
2008-05-15, 02:29:04,VALID,1005.04,VALID,0,VALID,94.0565,VALID,0,VALID,24.3088,VALID,353,VALID,0.455469,
2008-05-15, 02:30:04,VALID,1005.05,VALID,0,VALID,93.9115,VALID,0,VALID,24.2875,VALID,353,VALID,0.390625,
2008-05-15, 02:31:04,VALID,1005.02,VALID,0,VALID,93.8123,VALID,0.100563,VALID,24.307,VALID,353,VALID,0.504687,
2008-05-15, 02:32:04,VALID,1005.02,VALID,0,VALID,93.7208,VALID,0,VALID,24.3283,VALID,354,VALID,0.462891,
2008-05-15, 02:33:04,VALID,1005.02,VALID,0,VALID,93.7513,VALID,0.100563,VALID,24.3265,VALID,355,VALID,0.453516,
2008-05-15, 02:34:04,VALID,1005.01,VALID,0,VALID,93.6292,VALID,0.100563,VALID,24.3265,VALID,355,VALID,0.459375,
2008-05-15, 02:35:04,VALID,1005,VALID,0,VALID,93.5377,VALID,0,VALID,24.3673,VALID,355,VALID,0.531641,
2008-05-15, 02:36:04,VALID,1004.99,VALID,0,VALID,93.5072,VALID,0.100563,VALID,24.4062,VALID,356,VALID,0.01875,
2008-05-15, 02:37:04,VALID,1005.02,VALID,0,VALID,93.3851,VALID,0,VALID,24.4257,VALID,356,VALID,0,
2008-05-15, 02:38:04,VALID,1005.06,VALID,0,VALID,93.2631,VALID,0,VALID,24.4451,VALID,354,VALID,0.599609,
2008-05-15, 02:39:04,VALID,1005.06,VALID,0,VALID,93.1486,VALID,0,VALID,24.4841,VALID,334,VALID,0.186328,
2008-05-15, 02:40:04,VALID,1005.07,VALID,0,VALID,92.9808,VALID,0,VALID,24.4628,VALID,344,VALID,0.542188,
2008-05-15, 02:41:04,VALID,1005.08,VALID,0,VALID,92.9045,VALID,0.100563,VALID,24.4822,VALID,353,VALID,0.483203,
2008-05-15, 02:42:04,VALID,1005.09,VALID,0,VALID,92.7138,VALID,0,VALID,24.523,VALID,349,VALID,0.732422,
2008-05-15, 02:43:04,VALID,1005.08,VALID,0,VALID,92.5078,VALID,0,VALID,24.5406,VALID,354,VALID,0.476172,
2008-05-15, 02:44:04,VALID,1005.09,VALID,0,VALID,92.2561,VALID,0,VALID,24.5814,VALID,355,VALID,0.767578,
2008-05-15, 02:45:04,VALID,1005.09,VALID,0,VALID,92.0958,VALID,0,VALID,24.6185,VALID,353,VALID,0.271875,
2008-05-15, 02:46:04,VALID,1005.09,VALID,0,VALID,91.8975,VALID,0,VALID,24.6574,VALID,353,VALID,0.570313,
2008-05-15, 02:47:04,VALID,1005.09,VALID,0,VALID,91.7373,VALID,0,VALID,24.6983,VALID,345,VALID,0.0265625,
2008-05-15, 02:48:04,VALID,1005.08,VALID,0,VALID,91.6534,VALID,0,VALID,24.6964,VALID,345,VALID,0,
2008-05-15, 02:49:04,VALID,1005.11,VALID,0,VALID,91.5618,VALID,0,VALID,24.7177,VALID,345,VALID,0,
2008-05-15, 02:50:04,VALID,1005.09,VALID,0,VALID,91.5466,VALID,0,VALID,24.7177,VALID,345,VALID,0,
2008-05-15, 02:51:04,VALID,1005.08,VALID,0,VALID,91.455,VALID,0,VALID,24.7372,VALID,345,VALID,0.0550781,
2008-05-15, 02:52:04,VALID,1005.1,VALID,0,VALID,91.3482,VALID,0,VALID,24.7567,VALID,345,VALID,0.114453,
2008-05-15, 02:53:04,VALID,1005.09,VALID,0,VALID,91.2872,VALID,0,VALID,24.7567,VALID,345,VALID,0.265625,
2008-05-15, 02:54:04,VALID,1005.08,VALID,0,VALID,91.2338,VALID,0,VALID,24.7548,VALID,345,VALID,0.387891,
2008-05-15, 02:55:04,VALID,1005.09,VALID,0,VALID,91.3787,VALID,0,VALID,24.7372,VALID,345,VALID,0.399219,
2008-05-15, 02:56:04,VALID,1005.09,VALID,0,VALID,91.4932,VALID,0,VALID,24.6983,VALID,349,VALID,0.480078,
2008-05-15, 02:57:04,VALID,1005.07,VALID,0,VALID,91.6305,VALID,0,VALID,24.6593,VALID,349,VALID,0.48125,
2008-05-15, 02:58:04,VALID,1005.07,VALID,0,VALID,91.8288,VALID,0,VALID,24.599,VALID,349,VALID,0.441406,
2008-05-15, 02:59:04,VALID,1005.07,VALID,0,VALID,92.0043,VALID,0,VALID,24.5814,VALID,349,VALID,0.504687,
2008-05-15, 03:00:04,VALID,1005.06,VALID,0,VALID,92.2408,VALID,0,VALID,24.523,VALID,349,VALID,0.431641,
2008-05-15, 03:01:04,VALID,1005.05,VALID,0,VALID,92.3934,VALID,0,VALID,24.5035,VALID,349,VALID,0.562891,
2008-05-15, 03:02:04,VALID,1005.1,VALID,0,VALID,92.5688,VALID,0,VALID,24.4451,VALID,347,VALID,0.487109,
2008-05-15, 03:03:04,VALID,1005.06,VALID,0,VALID,92.729,VALID,0,VALID,24.4257,VALID,354,VALID,0.626562,
2008-05-15, 03:04:04,VALID,1005.06,VALID,0,VALID,92.8206,VALID,0,VALID,24.4257,VALID,342,VALID,0.559766,
2008-05-15, 03:05:04,VALID,1005.06,VALID,0,VALID,92.8511,VALID,0,VALID,24.4275,VALID,343,VALID,0.494922,
2008-05-15, 03:06:04,VALID,1005.04,VALID,0,VALID,92.9198,VALID,0,VALID,24.4275,VALID,344,VALID,0.512109,
2008-05-15, 03:07:04,VALID,1005.02,VALID,0,VALID,93.0189,VALID,0,VALID,24.3673,VALID,344,VALID,0.486719,
2008-05-15, 03:08:04,VALID,1005.02,VALID,0,VALID,93.1257,VALID,0,VALID,24.3478,VALID,344,VALID,0.314844,
2008-05-15, 03:09:04,VALID,1005.02,VALID,0,VALID,93.1639,VALID,0,VALID,24.3283,VALID,344,VALID,0.498437,
2008-05-15, 03:10:04,VALID,1005.01,VALID,0,VALID,93.2783,VALID,0,VALID,24.3088,VALID,344,VALID,0.466797,
2008-05-15, 03:11:04,VALID,1004.99,VALID,0,VALID,93.4309,VALID,0,VALID,24.2699,VALID,345,VALID,0.513281,
2008-05-15, 03:12:04,VALID,1004.97,VALID,0,VALID,93.5606,VALID,0,VALID,24.2894,VALID,345,VALID,0.492969,
2008-05-15, 03:13:04,VALID,1004.98,VALID,0,VALID,93.614,VALID,0,VALID,24.2699,VALID,345,VALID,0.434375,
2008-05-15, 03:14:04,VALID,1004.96,VALID,0,VALID,93.6979,VALID,0,VALID,24.2504,VALID,345,VALID,0.369141,
2008-05-15, 03:15:04,VALID,1004.93,VALID,0,VALID,93.7513,VALID,0,VALID,24.2504,VALID,345,VALID,0.335156,
2008-05-15, 03:16:04,VALID,1004.93,VALID,0,VALID,93.82,VALID,0,VALID,24.231,VALID,345,VALID,0.391016,
2008-05-15, 03:17:04,VALID,1004.92,VALID,0,VALID,93.8123,VALID,0,VALID,24.231,VALID,345,VALID,0.427734,
2008-05-15, 03:18:04,VALID,1004.92,VALID,0,VALID,93.8581,VALID,0,VALID,24.2115,VALID,345,VALID,0.487891,
2008-05-15, 03:19:04,VALID,1004.94,VALID,0,VALID,93.9649,VALID,0,VALID,24.192,VALID,345,VALID,0.339453,
2008-05-15, 03:20:04,VALID,1004.9,VALID,0,VALID,93.9954,VALID,0,VALID,24.1726,VALID,345,VALID,0.386328,
2008-05-15, 03:21:04,VALID,1004.91,VALID,0,VALID,94.0412,VALID,0,VALID,24.1744,VALID,345,VALID,0.427344,
2008-05-15, 03:22:04,VALID,1004.91,VALID,0,VALID,94.0412,VALID,0,VALID,24.1531,VALID,345,VALID,0.433203,
2008-05-15, 03:23:04,VALID,1004.9,VALID,0,VALID,94.0488,VALID,0,VALID,24.1531,VALID,345,VALID,0.428906,
2008-05-15, 03:24:04,VALID,1004.89,VALID,0,VALID,94.0794,VALID,0,VALID,24.1336,VALID,345,VALID,0.433984,
2008-05-15, 03:25:04,VALID,1004.9,VALID,0,VALID,94.148,VALID,0,VALID,24.1336,VALID,345,VALID,0.396094,
2008-05-15, 03:26:04,VALID,1004.88,VALID,0,VALID,94.2014,VALID,0,VALID,24.1142,VALID,345,VALID,0.545703,
2008-05-15, 03:27:04,VALID,1004.87,VALID,0,VALID,94.2472,VALID,0,VALID,24.1142,VALID,345,VALID,0.499219,
2008-05-15, 03:28:04,VALID,1004.88,VALID,0,VALID,94.3006,VALID,0,VALID,24.0947,VALID,345,VALID,0.531641,
2008-05-15, 03:29:04,VALID,1004.86,VALID,0,VALID,94.354,VALID,0,VALID,24.0947,VALID,345,VALID,0.410156,
2008-05-15, 03:30:04,VALID,1004.86,VALID,0,VALID,94.3845,VALID,0,VALID,24.0752,VALID,345,VALID,0.394141,
2008-05-15, 03:31:04,VALID,1004.85,VALID,0,VALID,94.415,VALID,0,VALID,24.0752,VALID,345,VALID,0.414844,
2008-05-15, 03:32:04,VALID,1004.86,VALID,0,VALID,94.4455,VALID,0,VALID,24.0345,VALID,345,VALID,0.407422,
2008-05-15, 03:33:04,VALID,1004.86,VALID,0,VALID,94.4837,VALID,0,VALID,24.0363,VALID,345,VALID,0.358203,
2008-05-15, 03:34:04,VALID,1004.9,VALID,0,VALID,94.5142,VALID,0,VALID,24.0363,VALID,345,VALID,0.401563,
2008-05-15, 03:35:04,VALID,1004.9,VALID,0,VALID,94.5447,VALID,0,VALID,23.9955,VALID,345,VALID,0.445703,
2008-05-15, 03:36:04,VALID,1004.92,VALID,0,VALID,94.6057,VALID,0,VALID,23.9955,VALID,345,VALID,0.445313,
2008-05-15, 03:37:04,VALID,1004.95,VALID,0,VALID,94.6515,VALID,0,VALID,24.0168,VALID,345,VALID,0.410156,
2008-05-15, 03:38:04,VALID,1004.95,VALID,0,VALID,94.6591,VALID,0,VALID,23.9973,VALID,345,VALID,0.311719,
2008-05-15, 03:39:04,VALID,1004.97,VALID,0,VALID,94.6973,VALID,0,VALID,23.9992,VALID,345,VALID,0.331641,
2008-05-15, 03:40:04,VALID,1005,VALID,0,VALID,94.6973,VALID,0,VALID,23.9779,VALID,345,VALID,0.308203,
2008-05-15, 03:41:04,VALID,1005.01,VALID,0,VALID,94.7354,VALID,0,VALID,23.9584,VALID,345,VALID,0.342578,
2008-05-15, 03:42:04,VALID,1005.01,VALID,0,VALID,94.766,VALID,0,VALID,23.9389,VALID,345,VALID,0.371094,
2008-05-15, 03:43:04,VALID,1005.02,VALID,0,VALID,94.7965,VALID,0,VALID,23.9389,VALID,345,VALID,0.349609,
2008-05-15, 03:44:04,VALID,1005.04,VALID,0,VALID,94.8651,VALID,0,VALID,23.9389,VALID,345,VALID,0.408984,